Flag for U.S.A. Weather past 2 weeks in Anaheim, California, U.S.A.

Now
63 °F

Clear.


Feels Like: 63 °F
Forecast: 59 / 85 °F
Wind: 5 mph from Southeast

Location: Fullerton Municipal Airport

Current Time: Mar 28, 2015 at 4:11:18 AM

Latest Report: Mar 28, 2015 at 2:53 AM


Visibility: 10 mi

Pressure: 30.04 "Hg

Humidity: 84%

Dew point: 58 °F

Location of AnaheimLocation

Historic Weather in Anaheim — Graph

°F

Anaheim temperature yesterday

Maximum temperature yesterday: 90 °F (at 1:53 PM)
Minimum temperature yesterday: 61 °F (at 6:53 AM)
Average temperature yesterday: 75 °F

Past Weeks' High & Low Weather Summary

 TemperatureHumidityPressure
High96 °F (Mar 14, 2:53 PM)86% (Mar 21, 1:53 AM)30.18 "Hg (Mar 21, 1:53 AM)
Low56 °F (Mar 24, 5:53 AM)7% (Mar 26, 1:53 PM)29.85 "Hg (Mar 16, 5:53 PM)
Average71 °F49%30.01 "Hg
* Reported Mar 13 2:53 AM — Mar 28 2:53 AM, Anaheim, Weather by CustomWeather, © 2015

Note: Actual official high and low records may vary slightly from our data, if they occured in-between our weather recording intervals... More about our weather records

Advertising

Anaheim weather history for previous 24 hours

 ConditionsComfort  
Time TempWeatherWind HumidityBarometerVisibility
2:53 AM
Sat, Mar 28
63 °FClear.5 mph84%30.04 "Hg10 mi
1:53 AM64 °FClear.3 mph78%30.04 "Hg10 mi
12:53 AM66 °FClear.3 mph70%30.05 "Hg10 mi
11:53 PM
Fri, Mar 27
67 °FClear.3 mph66%30.04 "Hg10 mi
10:53 PM70 °FClear.5 mph57%30.04 "Hg10 mi
9:53 PM70 °FClear.5 mph57%30.03 "Hg10 mi
8:53 PM75 °FClear.No wind30%30.01 "Hg10 mi
7:53 PM78 °FSunny.No wind25%29.99 "Hg10 mi
6:53 PM81 °FSunny.3 mph22%29.98 "Hg10 mi
5:53 PM84 °FSunny.5 mph22%29.98 "Hg10 mi
4:53 PM88 °FSunny.8 mph20%29.97 "Hg10 mi
3:53 PM89 °FSunny.7 mph22%29.97 "Hg10 mi
2:53 PM89 °FSunny.9 mph22%29.99 "Hg10 mi
1:53 PM90 °FSunny.7 mph17%30.01 "Hg10 mi
12:53 PM88 °FSunny.5 mph26%30.04 "Hg10 mi
11:53 AM84 °FSunny.5 mph26%30.06 "Hg10 mi
10:53 AM81 °FSunny.No wind22%30.07 "Hg10 mi
9:53 AM77 °FSunny.3 mph24%30.07 "Hg10 mi
8:53 AM72 °FSunny.No wind29%30.06 "Hg10 mi
7:53 AM65 °FSunny.No wind39%30.05 "Hg10 mi
6:53 AM61 °FClear.No wind46%30.03 "Hg10 mi
5:53 AM62 °FClear.5 mph43%30.03 "Hg10 mi
4:53 AM63 °FClear.No wind41%30.02 "Hg10 mi
Weather by CustomWeather, © 2015

See weather overviewHow to use our weather pages